When you browse on this site, cookies collect data to enhance your experience and personalize the content and advertising you see.
Visit our Privacy Policy to learn more. By continuing to use the site, you agree to this use of cookies and data.
  • Em Portugal
  • Lista de países
  • Para 7 dias
  • Temperatura da água
  • Mapas de satélite
  • Mapa do tempo
  • Widgets de tempo
  • user-avatar
    Iniciar Sessão

    Previsão horária em Maszutkinie

    Hoje, 18 Janeiro, Sexta-feira

    Tempo Temperatura Precipitação Vento Pressão Humidade
    00:00 -2°C° 0 mm 5 m/s 729 mmHg 89%
    01:00 -2°C° 0 mm 5 m/s 729 mmHg 90%
    02:00 -4°C° 0 mm 5 m/s 729 mmHg 91%
    03:00 -4°C° 0 mm 5 m/s 728 mmHg 92%
    04:00 -2°C° 0 mm 4 m/s 728 mmHg 93%
    05:00 -2°C° 0 mm 4 m/s 728 mmHg 94%
    06:00 -2°C° 0.7 mm 4 m/s 728 mmHg 94%
    07:00 -2°C° 0.7 mm 4 m/s 729 mmHg 95%
    08:00 -2°C° 0 mm 5 m/s 729 mmHg 96%
    09:00 -4°C° 1.1 mm 5 m/s 730 mmHg 94%
    10:00 -5°C° 1.1 mm 5 m/s 730 mmHg 91%
    11:00 -6°C° 1.1 mm 6 m/s 731 mmHg 89%
    12:00 -6°C° 0 mm 5 m/s 732 mmHg 88%
    13:00 -6°C° 0 mm 5 m/s 733 mmHg 87%
    14:00 -4°C° 0 mm 4 m/s 735 mmHg 86%
    15:00 -5°C° 0 mm 4 m/s 735 mmHg 86%
    16:00 -7°C° 0 mm 4 m/s 736 mmHg 87%
    17:00 -6°C° 0 mm 3 m/s 737 mmHg 88%
    18:00 -7°C° 0 mm 4 m/s 737 mmHg 88%
    19:00 -7°C° 0 mm 4 m/s 738 mmHg 88%
    20:00 -7°C° 0 mm 5 m/s 738 mmHg 89%
    21:00 -7°C° 0 mm 5 m/s 738 mmHg 88%
    22:00 -8°C° 0 mm 5 m/s 739 mmHg 88%
    23:00 -8°C° 0 mm 5 m/s 739 mmHg 87%

    Amanhã, 19 Janeiro, Sábado

    Tempo Temperatura Precipitação Vento Pressão Humidade
    00:00 -8°C° 0 mm 5 m/s 739 mmHg 87%
    01:00 -8°C° 0 mm 5 m/s 740 mmHg 86%
    02:00 -8°C° 0 mm 5 m/s 740 mmHg 85%
    03:00 -8°C° 0 mm 6 m/s 740 mmHg 86%
    04:00 -8°C° 0 mm 6 m/s 741 mmHg 87%
    05:00 -6°C° 0 mm 6 m/s 741 mmHg 89%
    06:00 -8°C° 0 mm 6 m/s 741 mmHg 90%
    07:00 -7°C° 0 mm 5 m/s 741 mmHg 90%
    08:00 -7°C° 0 mm 5 m/s 741 mmHg 91%
    09:00 -7°C° 0 mm 5 m/s 742 mmHg 91%
    10:00 -7°C° 0 mm 5 m/s 742 mmHg 91%
    11:00 -6°C° 0 mm 5 m/s 743 mmHg 91%
    12:00 -5°C° 0 mm 4 m/s 743 mmHg 91%
    13:00 -4°C° 0 mm 4 m/s 743 mmHg 91%
    14:00 -4°C° 0 mm 4 m/s 743 mmHg 91%
    15:00 -4°C° 0 mm 4 m/s 743 mmHg 91%
    16:00 -4°C° 0 mm 4 m/s 743 mmHg 91%
    17:00 -4°C° 0 mm 4 m/s 743 mmHg 92%
    18:00 -4°C° 0 mm 4 m/s 743 mmHg 92%
    19:00 -5°C° 0 mm 4 m/s 743 mmHg 92%
    20:00 -6°C° 0 mm 5 m/s 743 mmHg 93%
    21:00 -6°C° 0 mm 5 m/s 743 mmHg 93%
    22:00 -7°C° 0 mm 5 m/s 743 mmHg 92%
    23:00 -7°C° 0 mm 5 m/s 743 mmHg 92%

    Depois de amanhã, 20 Janeiro, Domingo

    Tempo Temperatura Precipitação Vento Pressão Humidade
    00:00 -7°C° 0 mm 5 m/s 743 mmHg 92%
    01:00 -7°C° 0 mm 5 m/s 743 mmHg 92%
    02:00 -8°C° 0 mm 5 m/s 743 mmHg 92%
    03:00 -8°C° 0 mm 4 m/s 742 mmHg 92%
    04:00 -8°C° 0 mm 4 m/s 742 mmHg 93%
    05:00 -8°C° 0 mm 4 m/s 742 mmHg 94%
    06:00 -8°C° 0 mm 4 m/s 742 mmHg 94%
    07:00 -8°C° 0 mm 5 m/s 742 mmHg 94%
    08:00 -8°C° 0 mm 5 m/s 742 mmHg 93%
    09:00 -8°C° 0 mm 5 m/s 741 mmHg 93%
    10:00 -7°C° 0 mm 5 m/s 741 mmHg 92%
    11:00 -6°C° 0 mm 5 m/s 741 mmHg 91%
    12:00 -6°C° 0.1 mm 5 m/s 741 mmHg 92%
    13:00 -5°C° 0.1 mm 5 m/s 741 mmHg 92%
    14:00 -5°C° 0.1 mm 5 m/s 741 mmHg 92%
    15:00 -5°C° 0.5 mm 5 m/s 741 mmHg 93%
    16:00 -4°C° 0.5 mm 4 m/s 741 mmHg 94%
    17:00 -4°C° 0.5 mm 3 m/s 741 mmHg 96%
    18:00 -5°C° 0.2 mm 3 m/s 741 mmHg 94%
    19:00 -5°C° 0.2 mm 2 m/s 742 mmHg 93%
    20:00 -3°C° 0.2 mm 1 m/s 742 mmHg 92%
    21:00 -6°C° 0 mm 2 m/s 742 mmHg 92%
    22:00 -7°C° 0 mm 2 m/s 742 mmHg 92%
    23:00 -8°C° 0 mm 2 m/s 743 mmHg 91%

    21 Janeiro, Segunda-feira

    Tempo Temperatura Precipitação Vento Pressão Humidade
    00:00 -9°C° 0 mm 2 m/s 743 mmHg 90%
    01:00 -9°C° 0 mm 2 m/s 743 mmHg 88%
    02:00 -9°C° 0 mm 2 m/s 744 mmHg 86%
    03:00 -10°C° 0 mm 3 m/s 744 mmHg 86%
    04:00 -10°C° 0 mm 3 m/s 744 mmHg 86%
    05:00 -10°C° 0 mm 3 m/s 744 mmHg 86%
    06:00 -10°C° 0 mm 3 m/s 744 mmHg 85%
    07:00 -10°C° 0 mm 3 m/s 745 mmHg 85%
    08:00 -10°C° 0 mm 3 m/s 745 mmHg 84%
    09:00 -10°C° 0 mm 3 m/s 745 mmHg 84%
    10:00 -8°C° 0 mm 2 m/s 745 mmHg 84%
    11:00 -7°C° 0 mm 2 m/s 746 mmHg 85%
    12:00 -6°C° 0 mm 2 m/s 746 mmHg 84%
    13:00 -7°C° 0 mm 3 m/s 746 mmHg 84%
    14:00 -6°C° 0 mm 3 m/s 746 mmHg 84%
    15:00 -7°C° 0 mm 3 m/s 745 mmHg 85%
    16:00 -7°C° 0 mm 3 m/s 745 mmHg 85%
    17:00 -8°C° 0 mm 3 m/s 745 mmHg 86%
    18:00 -8°C° 0 mm 3 m/s 745 mmHg 86%
    19:00 -8°C° 0 mm 3 m/s 745 mmHg 87%
    20:00 -9°C° 0 mm 3 m/s 745 mmHg 87%
    21:00 -9°C° 0.1 mm 4 m/s 744 mmHg 89%
    22:00 -8°C° 0.1 mm 4 m/s 744 mmHg 91%
    23:00 -7°C° 0.1 mm 4 m/s 744 mmHg 94%

    22 Janeiro, Terça-feira

    Tempo Temperatura Precipitação Vento Pressão Humidade
    00:00 -7°C° 0.1 mm 4 m/s 743 mmHg 93%
    01:00 -7°C° 0.1 mm 4 m/s 743 mmHg 93%
    02:00 -5°C° 0.1 mm 4 m/s 742 mmHg 93%
    03:00 -7°C° 0.2 mm 4 m/s 742 mmHg 93%
    04:00 -7°C° 0.2 mm 4 m/s 741 mmHg 93%
    05:00 -7°C° 0.2 mm 4 m/s 741 mmHg 93%
    06:00 -7°C° 0.2 mm 4 m/s 741 mmHg 93%
    07:00 -7°C° 0.2 mm 4 m/s 740 mmHg 93%
    08:00 -7°C° 0.2 mm 4 m/s 740 mmHg 93%
    09:00 -7°C° 0 mm 4 m/s 740 mmHg 93%
    10:00 -7°C° 0 mm 4 m/s 740 mmHg 93%
    11:00 -7°C° 0 mm 4 m/s 740 mmHg 93%
    12:00 -5°C° 0 mm 4 m/s 739 mmHg 92%
    13:00 -5°C° 0 mm 4 m/s 739 mmHg 91%
    14:00 -5°C° 0 mm 4 m/s 739 mmHg 91%
    15:00 -5°C° 0 mm 4 m/s 738 mmHg 90%
    16:00 -5°C° 0 mm 4 m/s 738 mmHg 90%
    17:00 -7°C° 0 mm 4 m/s 738 mmHg 90%
    18:00 -7°C° 0 mm 4 m/s 737 mmHg 90%
    19:00 -8°C° 0 mm 4 m/s 737 mmHg 90%
    20:00 -8°C° 0 mm 5 m/s 736 mmHg 90%
    21:00 -10°C° 0 mm 5 m/s 736 mmHg 89%
    22:00 -10°C° 0 mm 5 m/s 736 mmHg 88%
    23:00 -10°C° 0 mm 5 m/s 735 mmHg 88%

    23 Janeiro, Quarta-feira

    Tempo Temperatura Precipitação Vento Pressão Humidade
    00:00 -10°C° 0 mm 5 m/s 735 mmHg 88%
    01:00 -10°C° 0 mm 5 m/s 735 mmHg 88%
    02:00 -11°C° 0 mm 5 m/s 734 mmHg 88%
    03:00 -11°C° 0 mm 5 m/s 734 mmHg 89%
    04:00 -11°C° 0 mm 5 m/s 734 mmHg 90%
    05:00 -11°C° 0 mm 5 m/s 733 mmHg 91%
    06:00 -11°C° 0 mm 5 m/s 733 mmHg 91%
    07:00 -11°C° 0 mm 5 m/s 733 mmHg 92%
    08:00 -12°C° 0 mm 5 m/s 733 mmHg 92%
    09:00 -11°C° 0 mm 6 m/s 732 mmHg 91%
    10:00 -11°C° 0 mm 6 m/s 732 mmHg 90%
    11:00 -11°C° 0 mm 6 m/s 732 mmHg 89%
    12:00 -10°C° 0 mm 6 m/s 732 mmHg 90%
    13:00 -10°C° 0 mm 6 m/s 732 mmHg 90%
    14:00 -10°C° 0 mm 6 m/s 732 mmHg 90%
    15:00 -10°C° 0 mm 6 m/s 731 mmHg 90%
    16:00 -10°C° 0 mm 6 m/s 731 mmHg 90%
    17:00 -10°C° 0 mm 6 m/s 731 mmHg 90%
    18:00 -9°C° 0 mm 6 m/s 731 mmHg 90%
    19:00 -8°C° 0 mm 6 m/s 731 mmHg 90%
    20:00 -6°C° 0 mm 6 m/s 731 mmHg 90%
    21:00 -6°C° 0 mm 6 m/s 731 mmHg 90%
    22:00 -8°C° 0 mm 6 m/s 731 mmHg 90%
    23:00 -8°C° 0 mm 6 m/s 731 mmHg 91%
    Mostrar mais